Location: Kutna Hora
(49.9500°N, 15.2670°E)
Time: 05:20:02
(UTC+02:00)

ISS - Pass Details

Date: 22 May 2019
Orbit: 408 x 418 km, 51.6° (Epoch: 16 June)

Event Time Altitude Azimuth Distance (km) Brightness Sun altitude
Rises 01:03:30 0° 286° (WNW) 2,365 0.2 -19.7°
Reaches altitude 10° 01:05:36 10° 286° (WNW) 1,501 -0.8 -19.7°
Maximum altitude 01:08:58 89° 358° (N) 425 -3.9 -19.7°
Enters shadow 01:09:15 74° 104° (ESE) 441 -3.8 -19.7°
